{"data":{"norad_id":59439,"epoch":"2026-05-25T02:42:23.969952Z","epoch_age_seconds":66038,"freshness":"FRESH","line1":"1 59439U 24065U   26145.11277743  .00000731  00000+0  36812-4 0  9991","line2":"2 59439  53.1607 286.4424 0001086 102.6212 257.4910 15.30188220120633","mean_motion":15.3018822,"eccentricity":0.0001086,"inclination_deg":53.1607,"raan_deg":286.4424,"arg_perigee_deg":102.6212,"mean_anomaly_deg":257.491,"bstar":3.6812e-5,"rev_number":12063,"period_min":94.106070166976,"perigee_km":474.50596474707,"apogee_km":475.99452045616,"semimajor_km":6853.3872426016,"source":"CELESTRAK","updated_at":"2026-05-25T13:38:18.947537Z"}}